Погода в Грачах

Россия / Саратовская область     51°59′39″N   48°06′18″E
темп.,
°C
ветер,
м/с
пор.,
м/с
влажн.,
%
обл.,
%
осадки,
мм/ч
давл.,
гПа
погр.,
м
8 мая, сб
сб801:00+12сз226669 0.0 101533
04:00+11вюв226672 0.0 101512
07:00+13ю236177 0.0 1016113
10:00+18ююв45415 0.0 1016842
13:00+21ю563648 0.0 10152239
16:00+22ю563695 0.0 10132563
19:00+19ююз485099 0.0 1013235
22:00+15юз356193 0.0 101485
9 мая, вс
вс901:00+14ю2258100 0.0 101324
04:00+12ююв335855 0.0 101337
07:00+15юв41063100 0.0 1013288
10:00+19ююв71153100 0.0 1012468
13:00+23ю7104097 0.0 10121896
16:00+24ю793786 0.0 10112509
19:00+21ю3747100 0.0 1011155
22:00+18юв2250100 0.0 101220
10 мая, пн
пн1001:00+17вюв2752100 0.0 1012162
04:00+15св345898 0.0 101359
07:00+15ссв4567100 0.0 1014132
10:00+21всв5744100 0.0 1014781
13:00+26вюв6930100 0.0 10151821
16:00+26вюв583399 0.0 10152547
19:00+21св6115399 0.0 1016250
22:00+16ссв111674100 0.1 1018413
11 мая, вт
вт1101:00+15ссв81383100 0.1 1019281
04:00+16св71272100 0.1 1020324
07:00+16всв5106986 0.0 1022379
10:00+19в475957 0.0 1023697
13:00+25в8103766 0.0 10232148
16:00+25в8936100 0.0 10232521
19:00+18з3372100 0.0 102486
22:00+19в61454100 0.0 1023394
12 мая, ср
ср1201:00+17св4865100 0.1 1023189
04:00+18в61453100 0.1 1023512
07:00+18в6136082 0.0 1024578
10:00+21вюв7114696 0.0 1024950
13:00+21в7114698 0.0 1024867
16:00+24вюв793768 0.0 10231731
19:00+22в594673 0.0 1023264
22:00+19в5115298 0.0 1022239